Location: The Saddle
(36.8333°N, 80.3417°W)
Time: 03:29:11
(UTC-05:00)

Tiros 1 despin weight - Visible Passes

Search period start: 13 November 2024 00:00
Search period end: 23 November 2024 00:00
Orbit: 571 x 610 km, 48.2° (Epoch: 12 November)

Date Brightness Start Highest point End Pass type
(mag) Time Alt. Az. Time Alt. Az. Time Alt. Az.
13 Nov ? 04:05:49 16° NE 04:05:49 16° NE 04:06:47 10° NE visible
13 Nov ? 05:42:20 22° NW 05:43:42 26° NNW 05:47:25 10° NE visible
14 Nov ? 04:13:22 16° NE 04:13:22 16° NE 04:14:21 10° NE visible
14 Nov ? 05:49:53 17° NW 05:51:35 21° NNW 05:55:00 10° NE visible
15 Nov ? 04:20:50 16° NE 04:20:50 16° NE 04:21:51 10° NE visible
15 Nov ? 05:57:20 14° NW 05:59:31 19° N 06:02:41 10° NE visible
16 Nov ? 04:28:13 16° NNE 04:28:13 16° NNE 04:29:18 10° NE visible
16 Nov ? 06:04:42 11° NW 06:07:27 18° N 06:10:32 10° NE visible
17 Nov ? 04:35:32 16° NNE 04:35:32 16° NNE 04:36:48 10° NE visible
17 Nov ? 06:12:10 10° NW 06:15:22 19° N 06:18:33 10° NE visible
18 Nov ? 04:42:50 16° NNE 04:42:50 16° NNE 04:44:24 10° NE visible
18 Nov ? 06:19:47 10° NW 06:23:15 22° NNE 06:26:40 10° ENE visible
19 Nov ? 04:50:05 17° NNE 04:50:05 17° NNE 04:52:09 10° NE visible
19 Nov ? 06:27:16 10° NW 06:31:03 27° NNE 06:34:48 10° ENE visible
20 Nov ? 04:57:19 19° NNE 04:57:19 19° NNE 05:00:04 10° NE visible
20 Nov ? 06:34:40 10° NW 06:38:46 36° NNE 06:42:49 10° E visible
21 Nov ? 05:04:34 21° N 05:04:44 21° N 05:08:06 10° ENE visible
22 Nov ? 05:11:49 24° N 05:12:30 25° NNE 05:16:11 10° ENE visible
